Location: Gleizolles
(44.4833°N, 6.7667°E)
Time: 00:45:05
(UTC+00:00)

S-56A Canister/Altair - Pass Details

Date: 26 June 2024
Orbit: 638 x 2488 km, 38.9° (Epoch: 24 July)

Event Time Altitude Azimuth Distance (km) Brightness Sun altitude
Rises 17:06:28 0° 187° (S) 3,434 10.8 21.2°
Reaches altitude 10° 17:10:03 10° 163° (SSE) 2,776 10.2 20.6°
Maximum altitude 17:13:29 14° 131° (SE) 2,738 9.9 20.0°
Drops below altitude 10° 17:17:33 10° 102° (ESE) 3,416 10.3 19.3°
Sets 17:22:51 0° 82° (E) 4,844 11.1 18.4°
